STARLINK-5782, 56034

Orbit data source: Space-Track

STARLINK-5782, 56034 is a payload satellite owned by SpaceX/Seattle (US) in LEO that was launched on Fri, 24 Mar 2023 UTC via an FALCON 9 launch vehicle from the Air Force Eastern Test Range (AFETR). Payload-class satellites include a variety of spacecraft equipped with specific instruments for various scientific and technological missions. These include communications satellites like Starlink; space stations such as the ISS; scientific satellites like the Hubble; Earth observation satellites from companies like Planet Labs, Umbra, and HawkEye 360; GPS; miniature CubeSats for education and research; and military/defense satellites.

Loading next visibility...
Identifier
56034, 2023-042BA
Orbit
LEO
Country
Flag of USUS
Related business
Manufacturer
SpaceX/Seattle
Mission
Operational Commercial Communications
Bus & Motor
STARLINK, Unknown motor
Mass
305 kg wet, ~290 kg dry
Launch date (UTC)
2023-03-24 (3 years ago)
Launch vehicle
FALCON 9
Launch site
Air Force Eastern Test Range (AFETR)
Object type
Payload
Rocket body
Debris
Shape & HBR
Box + 1 Pan, 10.1 m
Radar Cross Section
11.087 m², Large (>1 m²)

Expand to show TLE details & history
Last TLE update: 2 days ago

TLE from 2 days ago
0 STARLINK-5782
1 56034U 23042BA  26171.02609155  .00006482  00000-0  24520-3 0  9990
2 56034  43.0030 187.5205 0000777 261.3072  98.7692 15.27534574178684
Epoch: 2026-06-20T00:37Z
TLE epoch observation values (Epoch: 2026-06-20T00:37:34.309Z)
Latitude
-0.00001°
Longitude
-90.1191°
Altitude
483.042 km
Speed
7.626 km/s
True Right ascension
12h 30m 04s
True Declination
0° 00' 00"
Sunlit
Object was in daylight at epoch
Visualization orbit readout
Latitude
Unknown
Longitude
Unknown
Altitude
Unknown
Speed
Unknown
Apparent Right ascension
Unknown
Apparent Declination
Unknown
Sunlit
N/A
Visualization observer readout
Local Sidereal Time
21:26:13
Azimuth
Unknown
Elevation
Unknown
Doppler factor
Unknown
Orbital elements
Apogee altitude
485.663 km
Perigee altitude
484.596 km
Semi-major axis
6,863.267 km
Eccentricity
0.00008
Inclination
43.003°
RAAN
187.5205°
Arg. of periapsis
261.3072°
True anomaly
98.778°
Mean anomaly
98.7692°
Eccentric anomaly
98.7736°
Mean motion
3.81722 °/min
Orbital period
94.31 mins
BSTAR
0.0002452
Loading maneuver chart data...
Computing Atmospheric mass density...
Loading historical data...
Loading historical data...
Loading historical data...
Loading historical data...
Loading historical data...
Loading historical data...
Loading historical data...

Documentation

Showing up to 5 results
|